Weather Roundup
Issued by NWS Chicago, IL

Home | Current Version | Previous Version | Graphics & Text | Print | Product List | Glossary On
Versions: 1 2 3 4 5 6 7 8 9 10 11 12 13 14 15 16 17 18 19 20 21 22 23 24 25 26 27 28 29 30 31 32 33 34 35 36 37 38 39 40 41 42 43 44 45 46 47 48 49 50
000
NZUS59 KLOT 240403
HRRLOT

CHICAGO AREA WEATHER ROUNDUP
NATIONAL WEATHER SERVICE CHICAGO/ROMEOVILLE IL
1100 PM CDT MON MAY 23 2016

NOTE: "FAIR" INDICATES FEW OR NO CLOUDS BELOW 12,000 FEET WITH NO
SIGNIFICANT WEATHER AND/OR OBSTRUCTIONS TO VISIBILITY.

* THESE STATIONS ARE NOT UNDER NWS QUALITY CONTROL. THEY ALSO MAY NOT
  REPORT WEATHER SUCH AS PRECIPITATION OR FOG.

ILZ005-006-012>014-019>023-240500-
NORTHEAST ILLINOIS

CITY           SKY/WX    TMP DP  RH WIND       PRES   REMARKS
OHARE          PTCLDY    61  44  53 SE8       29.92R
MIDWAY         MOCLDY    72  38  29 S7        29.93R
AURORA         CLOUDY    65  47  52 SE6       29.92S
LANSING*       PTCLDY    63  40  42 S5        29.95R
WAUKEGAN       PTCLDY    63  42  46 SE8       29.92S
DUPAGE AIRPORT CLOUDY    64  42  44 S6        29.92R
WHEELING       CLEAR     61  41  47 CALM      29.93S
$$

WIZ051-052-058>065-066-070>072-240500-
SOUTHEAST WISCONSIN

CITY           SKY/WX    TMP DP  RH WIND       PRES   REMARKS
MILWAUKEE      CLOUDY    64  37  36 S6        29.92R
KENOSHA*       CLOUDY    62  40  44 S7        29.93R
RACINE*        CLOUDY    63  39  41 S9        29.94R
BURLINGTON     CLOUDY    59  43  55 CALM      29.92S
$$

INZ001>003-010>013-019-020-240500-
NORTHWEST INDIANA

CITY           SKY/WX    TMP DP  RH WIND       PRES   REMARKS
GARY*          NOT AVBL
MICHIGAN CITY* NOT AVBL
RENSSELAER*    NOT AVBL
VALPARAISO     PTCLDY    66  35  31 SE6       29.97S
$$

LMZ740>746-240500-
SOUTHERN LAKE MICHIGAN

STATION/POSITION TIME  SKY/WX   TEMP WIND        PRES    VSBY
                                AIR  DIR/SP/G
                 (UTC)          (F)  (DEG/KT/KT) (MB)    (MI)
HARRISON CRIB    0300            62  160/ 10/ 13   N/A
BURNHAM HARBOR   0400            58   CALM  /  2   N/A
CALUMET HARBOR   0300                            1013.0R
BURNS HARBOR     0300            73  150/  9/ 16 1014.6R
MICHIGAN CITY    0300            69  120/  8/  9   N/A
$$

ABBREVIATIONS USED IN REMARKS
   TC - TEMPERATURE IN CELSIUS
  WCI - WIND CHILL INDEX
   HX - HEAT INDEX
  VSB - VISIBILITY
$$



USA.gov is the U.S. government's official web portal to all federal, state and local government web resources and services.